Location: Cadenet
(43.7345°N, 5.3750°E)
Time: 10:48:25
(UTC+00:00)

Okean O Rocket - Pass Details

Date: 18 February 2020
Orbit: 622 x 645 km, 98.2° (Epoch: 04 April)

Event Time Altitude Azimuth Distance (km) Brightness Sun altitude
Rises 05:18:21 0° 15° (NNE) 2,934 5.2 -14.3°
Reaches altitude 10° 05:20:35 10° 18° (NNE) 2,018 4.4 -13.9°
Maximum altitude 05:24:57 70° 102° (ESE) 670 1.9 -13.1°
Drops below altitude 10° 05:29:17 10° 186° (S) 1,991 4.1 -12.3°
Sets 05:31:27 0° 189° (S) 2,890 5.0 -11.9°
